Weather History for Clinton, OK

Change the Weather History Date:

Thursday, March 7, 2013

  Actual Average (KCSM) Record (KCSM)
Temperature  
Mean Temperature 50 °F -  
Max Temperature 68 °F 55 °F 79 °F (2006)
Min Temperature 33 °F 32 °F 18 °F (2008)
Degree Days  
Heating Degree Days 14    
Moisture  
Dew Point 23 °F    
Average Humidity 40    
Maximum Humidity 65    
Minimum Humidity 18    
Precipitation  
Precipitation 0.00 in - - ()
Sea Level Pressure  
Sea Level Pressure 30.05 in    
Wind  
Wind Speed 15 mph (SSE)    
Max Wind Speed 25 mph    
Max Gust Speed 31 mph    
Visibility 10 miles    
Events      
Averages and records for this station are not official NWS values.
T = Trace of Precipitation, MM = Missing Value Source: NWS Daily Summary

Daily Weather History Graph

Daily Weather History Graph

Search for Another Location

Airport:

Trip Planner

Search our weather history database for the weather conditions in past years. The results will help you decide how hot, cold, wet, or windy it might be!

Date:

Astronomy

Mar. 07, 2013 Rise Set
Actual Time 6:57 AM CST 6:36 PM CST
Civil Twilight 6:31 AM CST 7:02 PM CST
Nautical Twilight 6:02 AM CST 7:31 PM CST
Astronomical Twilight 5:32 AM CST 8:01 PM CST
Moon 3:50 AM CST (3/7) 2:33 PM CST (3/7)
Length of Visible Light 12h 30m
Length of Day
11h 39m
Waning Crescent, 20% of the Moon is Illuminated
Mar 7
Waning Crescent
Mar 11
New
Mar 19
First Quarter
Mar 27
Full
Apr 2
Last Quarter

Hourly Weather History & Observations

Time (CST) Temp. Windchill Dew Point Humidity Pressure Visibility Wind Dir Wind Speed Gust Speed Precip Events Conditions
12:15 AM 41.0 °F 33.9 °F 23.0 °F 49% 30.11 in 10.0 mi SSE 12.7 mph 17.3 mph N/A   Clear
12:35 AM 41.0 °F 33.9 °F 23.0 °F 49% 30.11 in 10.0 mi SSE 12.7 mph - N/A   Clear
12:55 AM 41.0 °F 33.9 °F 21.2 °F 45% 30.10 in 10.0 mi SSE 12.7 mph - N/A   Clear
1:15 AM 41.0 °F 33.9 °F 21.2 °F 45% 30.11 in 10.0 mi SSE 12.7 mph - N/A   Clear
1:35 AM 39.2 °F 32.0 °F 23.0 °F 52% 30.11 in 10.0 mi SSE 11.5 mph - N/A   Clear
1:55 AM 37.4 °F 29.8 °F 23.0 °F 56% 30.10 in 10.0 mi SSE 11.5 mph - N/A   Clear
2:15 AM 37.4 °F 30.3 °F 23.0 °F 56% 30.10 in 10.0 mi SSE 10.4 mph - N/A   Clear
2:35 AM 37.4 °F 29.3 °F 23.0 °F 56% 30.10 in 10.0 mi SSE 12.7 mph - N/A   Clear
2:55 AM 37.4 °F 30.3 °F 21.2 °F 52% 30.09 in 10.0 mi SE 10.4 mph - N/A   Clear
3:15 AM 37.4 °F 30.3 °F 21.2 °F 52% 30.08 in 10.0 mi SE 10.4 mph - N/A   Clear
3:35 AM 35.6 °F 27.5 °F 21.2 °F 56% 30.07 in 10.0 mi SE 11.5 mph - N/A   Clear
4:15 AM 35.6 °F 27.5 °F 23.0 °F 60% 30.05 in 10.0 mi SSE 11.5 mph - N/A   Clear
4:35 AM 35.6 °F 27.5 °F 23.0 °F 60% 30.05 in 10.0 mi SE 11.5 mph - N/A   Clear
4:55 AM 35.6 °F 28.0 °F 23.0 °F 60% 30.05 in 10.0 mi SE 10.4 mph - N/A   Clear
5:15 AM 35.6 °F 26.6 °F 23.0 °F 60% 30.05 in 10.0 mi SSE 13.8 mph - N/A   Clear
5:35 AM 35.6 °F 27.1 °F 23.0 °F 60% 30.05 in 10.0 mi SSE 12.7 mph - N/A   Clear
5:55 AM 33.8 °F 24.8 °F 23.0 °F 65% 30.05 in 10.0 mi SSE 12.7 mph - N/A   Clear
6:15 AM 33.8 °F 24.3 °F 23.0 °F 65% 30.06 in 10.0 mi SSE 13.8 mph - N/A   Clear
6:35 AM 35.6 °F 27.1 °F 23.0 °F 60% 30.06 in 10.0 mi SSE 12.7 mph - N/A   Clear
7:15 AM 35.6 °F 27.1 °F 23.0 °F 60% 30.06 in 10.0 mi SSE 12.7 mph - N/A   Clear
7:35 AM 33.8 °F 25.8 °F 23.0 °F 65% 30.06 in 10.0 mi SSE 10.4 mph - N/A   Clear
7:55 AM 35.6 °F 26.6 °F 23.0 °F 60% 30.07 in 10.0 mi South 13.8 mph - N/A   Clear
8:15 AM 37.4 °F 28.5 °F 23.0 °F 56% 30.07 in 10.0 mi SSE 15.0 mph - N/A   Clear
8:35 AM 39.2 °F 30.8 °F 23.0 °F 52% 30.08 in 10.0 mi SSE 15.0 mph - N/A   Clear
8:55 AM 41.0 °F 33.5 °F 23.0 °F 49% 30.08 in 10.0 mi South 13.8 mph - N/A   Clear
9:15 AM 44.6 °F 36.9 °F 23.0 °F 43% 30.08 in 10.0 mi South 18.4 mph - N/A   Clear
9:35 AM 46.4 °F 40.4 °F 23.0 °F 40% 30.08 in 10.0 mi South 13.8 mph - N/A   Clear
9:55 AM 50.0 °F - 23.0 °F 35% 30.08 in 10.0 mi South 18.4 mph 23.0 mph N/A   Clear
10:15 AM 51.8 °F - 19.4 °F 28% 30.07 in 10.0 mi South 25.3 mph - N/A   Clear
10:35 AM 53.6 °F - 19.4 °F 26% 30.07 in 10.0 mi South 20.7 mph 28.8 mph N/A   Clear
11:15 AM 55.4 °F - 17.6 °F 23% 30.07 in 10.0 mi South 25.3 mph 31.1 mph N/A   Clear
11:35 AM 59.0 °F - 17.6 °F 20% 30.06 in 10.0 mi South 21.9 mph 31.1 mph N/A   Clear
11:55 AM 59.0 °F - 19.4 °F 22% 30.06 in 10.0 mi South 23.0 mph 28.8 mph N/A   Clear
12:15 PM 60.8 °F - 19.4 °F 20% 30.05 in 10.0 mi South 20.7 mph 24.2 mph N/A   Clear
12:35 PM 60.8 °F - 21.2 °F 22% 30.05 in 10.0 mi South 21.9 mph 27.6 mph N/A   Clear
12:55 PM 62.6 °F - 19.4 °F 19% 30.04 in 10.0 mi South 25.3 mph 28.8 mph N/A   Clear
1:15 PM 62.6 °F - 19.4 °F 19% 30.04 in 10.0 mi South 23.0 mph 29.9 mph N/A   Clear
1:35 PM 62.6 °F - 21.2 °F 20% 30.03 in 10.0 mi South 20.7 mph 26.5 mph N/A   Clear
1:55 PM 64.4 °F - 21.2 °F 19% 30.02 in 10.0 mi South 19.6 mph 26.5 mph N/A   Clear
2:15 PM 64.4 °F - 23.0 °F 21% 30.01 in 10.0 mi SSW 19.6 mph 27.6 mph N/A   Clear
2:35 PM 64.4 °F - 21.2 °F 19% 29.99 in 10.0 mi South 23.0 mph 27.6 mph N/A   Clear
3:15 PM 66.2 °F - 23.0 °F 19% 29.99 in 10.0 mi South 20.7 mph - N/A   Clear
3:35 PM 68.0 °F - 23.0 °F 18% 29.99 in 10.0 mi South 23.0 mph 28.8 mph N/A   Clear
4:15 PM 68.0 °F - 23.0 °F 18% 29.98 in 10.0 mi South 21.9 mph 28.8 mph N/A   Clear
4:35 PM 68.0 °F - 23.0 °F 18% 29.98 in 10.0 mi South 21.9 mph 25.3 mph N/A   Clear
4:55 PM 68.0 °F - 26.6 °F 21% 29.97 in 10.0 mi South 20.7 mph - N/A   Clear
5:15 PM 68.0 °F - 23.0 °F 18% 29.98 in 10.0 mi South 17.3 mph 26.5 mph N/A   Clear
5:35 PM 66.2 °F - 24.8 °F 21% 29.98 in 10.0 mi South 17.3 mph - N/A   Clear
8:15 PM 55.4 °F - 28.4 °F 36% 29.99 in 10.0 mi SSE 11.5 mph - N/A   Clear
8:35 PM 55.4 °F - 28.4 °F 36% 30.00 in 10.0 mi SSE 16.1 mph - N/A   Clear
8:55 PM 55.4 °F - 28.4 °F 36% 30.00 in 10.0 mi SSE 13.8 mph - N/A   Clear
9:15 PM 55.4 °F - 28.4 °F 36% 30.01 in 10.0 mi SSE 15.0 mph - N/A   Clear
9:35 PM 55.4 °F - 26.6 °F 33% 30.01 in 10.0 mi SSE 16.1 mph 21.9 mph N/A   Clear
9:55 PM 53.6 °F - 26.6 °F 35% 30.02 in 10.0 mi SSE 16.1 mph 21.9 mph N/A   Clear
10:15 PM 53.6 °F - 26.6 °F 35% 30.01 in 10.0 mi SSE 16.1 mph 21.9 mph N/A   Clear
10:35 PM 51.8 °F - 28.4 °F 41% 30.02 in 10.0 mi SSE 13.8 mph - N/A   Clear
10:55 PM 50.0 °F - 30.2 °F 47% 30.02 in 10.0 mi South 9.2 mph - N/A   Clear
11:15 PM 50.0 °F - 30.2 °F 47% 30.03 in 10.0 mi South 12.7 mph - N/A   Clear
11:35 PM 50.0 °F - 32.0 °F 50% 30.02 in 10.0 mi South 13.8 mph - N/A   Clear
11:55 PM 50.0 °F - 33.8 °F 54% 30.02 in 10.0 mi South 13.8 mph - N/A   Clear